This demonstration page uses our WeatherBlox Daily Observations layout. Learn more.

Left ArrowRight Arrow

Hourly Observations for June 19, 2015

Temp ( °F °C ) Dew Point ( °F °C ) Humidity (%) Winds ( mph kmh ) Pressure ( in mb ) Visibility ( mi km ) Precip ( " mm )
6:30 am 06:30 Cloudy 68 20 66 19 94 94 Calm 30.00 1016 8 13 N/A
6:58 am 06:58 Cloudy with Light Showers 68 20 66 19 94 94 SSW N/A 30.03 1017 4 6 N/A
7:48 am 07:48 Cloudy with Light Rain 68 20 66 19 94 94 ESE 7 11 30.00 1016 3 5 N/A
8:55 am 08:55 Cloudy with Light Rain 68 20 66 19 94 94 N 5 7 30.03 1017 3 5 N/A
9:18 am 09:18 Cloudy with Light Rain 68 20 66 19 94 94 ENE 5 7 30.03 1017 1 1 N/A
9:54 am 09:54 Cloudy with Light Rain 66 19 64 18 94 94 N 5 7 30.03 1017 3 5 N/A
10:55 am 10:55 Cloudy with Light Showers 68 20 66 19 94 94 ESE 5 7 30.03 1017 7 11 N/A
11:56 am 11:56 Cloudy 68 20 66 19 94 94 E 3 6 30.03 1017 10 16 N/A
12:55 pm 12:55 Mostly Cloudy 68 20 66 19 94 94 E 5 7 30.00 1016 10 16 N/A
1:45 pm 13:45 Mostly Cloudy 72 22 68 20 88 88 E 8 13 29.97 1015 10 16 N/A
1:58 pm 13:58 Mostly Cloudy 72 22 68 20 88 88 E 8 13 29.97 1015 10 16 N/A
2:07 pm 14:07 Mostly Cloudy 72 22 68 20 88 88 E 9 15 29.97 1015 10 16 N/A
2:45 pm 14:45 Mostly Cloudy 73 23 68 20 83 83 E 7 11 29.97 1015 10 16 N/A
3:48 pm 15:48 Mostly Cloudy 75 24 68 20 78 78 ENE 7 11 29.94 1014 10 16 N/A
4:46 pm 16:46 Mostly Cloudy 77 25 68 20 74 74 E 8 13 29.94 1014 10 16 N/A
5:45 pm 17:45 Cloudy 77 25 68 20 74 74 ENE 7 11 29.91 1013 10 16 N/A
6:45 pm 18:45 Cloudy 75 24 68 20 78 78 ENE 8 13 29.91 1013 10 16 N/A
7:45 pm 19:45 Cloudy 73 23 68 20 83 83 E 7 11 29.91 1013 10 16 N/A
8:04 pm 20:04 Cloudy with Light Rain 73 23 68 20 83 83 E 9 15 29.91 1013 3 4 N/A
8:26 pm 20:26 Cloudy with Light Rain 72 22 68 20 88 88 ENE 5 7 29.88 1012 2 2 N/A
8:59 pm 20:59 Cloudy with Light Rain 70 21 66 19 88 88 SE 10 17 29.94 1014 3 5 N/A
9:45 pm 21:45 Cloudy with Light Rain 68 20 66 19 94 94 ESE 7 11 29.91 1013 4 6 N/A

Powered by AerisWeather